Location: Clinton NY
(43.0598°N, 75.3602°W)
Time: 11:35:19
(UTC-05:00)

ISS - All Passes

Search period start: 18 December 2017 00:00
Search period end: 28 December 2017 00:00
Orbit: 402 x 406 km, 51.6° (Epoch: 19 December)

Date Brightness Start Highest point End Pass type
(mag) Time Alt. Az. Time Alt. Az. Time Alt. Az.
18 Dec - 09:05:39 10° SSE 09:07:21 14° SE 09:09:04 10° E daylight
18 Dec - 10:40:08 10° WSW 10:43:25 78° NNW 10:46:43 10° NE daylight
18 Dec - 12:17:38 10° WNW 12:20:18 22° NNW 12:22:57 10° NE daylight
18 Dec - 13:55:08 10° NW 13:57:35 19° N 14:00:03 10° NE daylight
18 Dec - 15:31:28 10° NW 15:34:40 45° NNE 15:37:50 10° ESE daylight
18 Dec - 17:08:14 10° W 17:10:59 25° SW 17:13:44 10° SSE visible
19 Dec - 09:47:58 10° SW 09:51:11 57° SE 09:54:25 10° ENE daylight
19 Dec - 11:24:56 10° W 11:27:50 28° NNW 11:30:45 10° NE daylight
19 Dec - 13:02:42 10° NW 13:05:04 18° N 13:07:27 10° NE daylight
19 Dec - 14:39:17 10° NW 14:42:16 31° NNE 14:45:15 10° E daylight
19 Dec - 16:15:41 10° WNW 16:18:52 46° SW 16:22:01 10° SE daylight
20 Dec - 08:56:05 10° SSW 08:59:00 30° SE 09:01:57 10° ENE daylight
20 Dec - 10:32:18 10° W 10:35:25 39° NNW 10:38:33 10° NE daylight
20 Dec - 12:10:07 10° NW 12:12:32 19° N 12:14:57 10° NE daylight
20 Dec - 13:47:04 10° NW 13:49:49 24° NNE 13:52:34 10° ENE daylight
20 Dec - 15:23:19 10° WNW 15:26:38 87° SW 15:29:54 10° SE daylight
20 Dec - 17:01:39 10° WSW 17:02:37 11° SW 17:03:34 10° SSW visible
21 Dec - 08:04:43 10° S 08:06:54 17° SE 08:09:05 10° E daylight
21 Dec - 09:39:48 10° WSW 09:43:03 64° NNW 09:46:21 10° NE daylight
21 Dec - 11:17:25 10° WNW 11:19:59 21° NNW 11:22:35 10° NE daylight
21 Dec - 12:54:47 10° NW 12:57:18 20° N 12:59:50 10° ENE daylight
21 Dec - 14:31:04 10° NW 14:34:19 54° NNE 14:37:32 10° ESE daylight
21 Dec - 16:08:03 10° W 16:10:33 20° SW 16:13:03 10° S daylight
22 Dec - 08:47:29 10° SW 08:50:45 72° SE 08:54:02 10° ENE daylight
22 Dec - 10:24:40 10° WNW 10:27:29 25° NNW 10:30:19 10° NE daylight
22 Dec - 12:02:22 10° NW 12:04:45 18° N 12:07:08 10° NE daylight
22 Dec - 13:38:50 10° NW 13:41:55 35° NNE 13:44:58 10° E daylight
22 Dec - 15:15:20 10° WNW 15:18:24 37° SW 15:21:27 10° SSE daylight
23 Dec - 07:55:28 10° SSW 07:58:31 37° SE 08:01:36 10° ENE daylight
23 Dec - 09:31:58 10° W 09:35:01 34° NNW 09:38:05 10° NE daylight
23 Dec - 11:09:48 10° NW 11:12:10 18° N 11:14:33 10° NE daylight
23 Dec - 12:46:36 10° NW 12:49:26 26° NNE 12:52:16 10° ENE daylight
23 Dec - 14:22:53 10° WNW 14:26:10 71° SW 14:29:25 10° SE daylight
24 Dec - 07:03:50 10° S 07:06:21 20° SE 07:08:52 10° E daylight
24 Dec - 08:39:22 10° WSW 08:42:35 53° NNW 08:45:50 10° NE daylight
24 Dec - 10:17:05 10° WNW 10:19:36 20° N 10:22:07 10° NE daylight
24 Dec - 11:54:18 10° NW 11:56:54 21° NNE 11:59:29 10° ENE daylight
24 Dec - 13:30:33 10° NW 13:33:50 65° NNE 13:37:06 10° ESE daylight
24 Dec - 15:07:49 10° W 15:10:00 17° SW 15:12:09 10° S daylight
25 Dec - 06:13:14 10° SSE 06:14:14 11° SE 06:15:15 10° ESE visible
25 Dec - 07:46:57 10° SW 07:50:13 88° SSE 07:53:31 10° ENE daylight
25 Dec - 09:24:19 10° WNW 09:27:02 23° NNW 09:29:46 10° NE daylight
25 Dec - 11:01:54 10° NW 11:04:19 19° N 11:06:44 10° NE daylight
25 Dec - 12:38:17 10° NW 12:41:25 40° NNE 12:44:33 10° E daylight
25 Dec - 14:14:54 10° WNW 14:17:49 30° SW 14:20:44 10° SSE daylight
26 Dec - 06:54:46 10° SW 06:57:56 47° SE 07:01:06 10° ENE visible
26 Dec - 08:31:32 10° W 08:34:30 31° NNW 08:37:29 10° NE daylight
26 Dec - 10:09:20 10° NW 10:11:42 18° N 10:14:04 10° NE daylight
26 Dec - 11:46:00 10° NW 11:48:56 28° NNE 11:51:50 10° E daylight
26 Dec - 13:22:20 10° WNW 13:25:35 56° SW 13:28:47 10° SE daylight
27 Dec - 06:02:56 10° SSW 06:05:41 25° SE 06:08:27 10° E visible
27 Dec - 07:38:51 10° WSW 07:42:01 45° NNW 07:45:12 10° NE daylight
27 Dec - 09:16:38 10° NW 09:19:05 19° N 09:21:31 10° NE daylight
27 Dec - 10:53:42 10° NW 10:56:22 22° NNE 10:59:02 10° ENE daylight
27 Dec - 12:29:56 10° NW 12:33:14 79° NNE 12:36:31 10° ESE daylight
27 Dec - 14:07:36 10° W 14:09:18 13° SW 14:10:58 10° SSW daylight
